OpenBCM V2.0.2 (Linux)

Packet Radio Mailbox

IZ3LSV

[San Dona' di P. JN]

 Login: GUEST





  
CX2SA  > KEP      26.02.20 02:16l 86 Lines 3614 Bytes #999 (0) @ ARL
BID : ARLK016
Read: GUEST
Subj: ARLK016 Keplerian data
Path: IZ3LSV<IQ2LB<IK1NHL<CX2SA
Sent: 200225/2314Z @:CX2SA.SAL.URY.SOAM #:25620 [Salto] FBB7.00e $:ARLK016
From: CX2SA@CX2SA.SAL.URY.SOAM
To  : KEP@ARL


ZCZC SK16
QST de W1AW
Keplerian Bulletin 16  ARLK016
From ARRL Headquarters
Newington, CT  February 25, 2020
To all radio amateurs

SB KEP ARL ARLK016
ARLK016 Keplerian data

Special thanks to AMSAT-NA (AMSAT.ORG) for the following Keplerian
data.

Decode 2-line elsets with the following key:
1 AAAAAU 00  0  0 BBBBB.BBBBBBBB  .CCCCCCCC  00000-0  00000-0 0  DDDZ
2 AAAAA EEE.EEEE FFF.FFFF GGGGGGG HHH.HHHH III.IIII JJ.JJJJJJJJKKKKKZ
KEY: A-CATALOGNUM B-EPOCHTIME C-DECAY D-ELSETNUM E-INCLINATION F-RAAN
G-ECCENTRICITY H-ARGPERIGEE I-MNANOM J-MNMOTION K-ORBITNUM Z-CHECKSUM

0 AO-07
1 7530U 74089B   20056.42039556 -.00000053 +00000-0 -46385-4 0  9990
2 7530 101.7854 026.8590 0011923 220.9570 291.0059 12.53642154071821
0 FO-29
1 24278U 96046B   20056.32903201 -.00000005 +00000-0 +34344-4 0  9999
2 24278 098.5679 181.0577 0349459 307.9567 049.0470 13.53095816161585
0 ISS
1 25544U 98067A   20056.59918355  .00001307  00000-0  31709-4 0  9993
2 25544  51.6444 185.5420 0004917 316.2650 130.2778 15.49196623214567
0 SO-50
1 27607U 02058C   20056.32520602 -.00000042 +00000-0 +14790-4 0  9992
2 27607 064.5569 000.2488 0061906 205.6373 154.1657 14.75611349924037
0 CO-55
1 27844U 03031E   20056.44739801 +.00000041 +00000-0 +38093-4 0  9993
2 27844 098.6845 065.8747 0010311 028.6240 331.5502 14.22222743864031
0 RS-22
1 27939U 03042A   20056.56032081 +.00000005 +00000-0 +95765-5 0  9999
2 27939 098.0707 193.0046 0012760 356.8406 003.2716 14.66838635877465
0 RS-30
1 32953U 08025A   20056.55884187  .00000037  00000-0  19437-3 0  9993
2 32953  82.5073 348.1209 0018768 303.5919  56.3367 12.43094585533604
0 KKS-1
1 33499U 09002H   20056.54163729 +.00000102 +00000-0 +23045-4 0  9990
2 33499 098.3299 268.0263 0010179 120.7596 239.4616 14.75506715595938
0 AO-71
1 37854U 11061E   20056.57433938 +.00001402 +00000-0 +78157-4 0  9990
2 37854 101.7113 089.5772 0159107 037.4997 323.7190 15.07016295454478
0 AO-73
1 39444U 13066AE  20056.07534049 +.00000232 +00000-0 +34901-4 0  9993
2 39444 097.5588 062.5822 0056492 282.7829 076.7075 14.82068579336573
0 UKUBE 1
1 40074U 14037F   20056.44593885  .00000366  00000-0  50975-4 0  9994
2 40074  98.4530 238.0585 0005479 113.6157 246.5634 14.84199937304996
0 XW-2A
1 40903U 15049E   20056.60471372 +.00001949 +00000-0 +46612-4 0  9994
2 40903 097.3051 105.4018 0012026 318.9984 204.4184 15.42670450249074
0 XW-2F
1 40910U 15049M   20056.50164950  .00000965  00000-0  51077-4 0  9990
2 40910  97.4675  61.6282 0015748  39.2211  63.8927 15.17725957245209
0 XW-2B
1 40911U 15049N   20056.51171771  .00000565  00000-0  32724-4 0  9995
2 40911  97.4750  59.9246 0015357  48.4805 106.4647 15.16084180245052
0 IO-86
1 40931U 15052B   20055.60831865  .00001250  00000-0  85175-4 0  9997
2 40931   5.9908  67.2271 0013147 110.3036 250.2089 14.76632592238403
0 CAS-4B
1 42759U 17034B   20056.03463968  .00000263  00000-0  29509-4 0  9994
2 42759  43.0195 290.1779 0011333  29.3117 110.9476 15.09750526148821
0 CAS-4A
1 42761U 17034D   20056.05199475  .00000362  00000-0  35497-4 0  9991
2 42761  43.0200 289.4558 0011639  30.7287 115.0131 15.09829593148825
0 AO-91
1 43017U 17073E   20055.85610273  .00000662  00000-0  56242-4 0  9994
2 43017  97.7268 332.4584 0258692  60.5962 302.0808 14.78806889122370
0 AO-92
1 43137U 18004AC  20056.15809586 +.00001006 +00000-0 +44573-4 0  9990
2 43137 097.4580 128.0356 0010890 093.9745 266.2737 15.23901398117792

Keplerian bulletins are transmitted twice weekly from W1AW.  The
next scheduled transmission of these data will be Friday, February
28, 2020, at 2330z on Baudot and BPSK31.
NNNN


Read previous mail | Read next mail


 03.05.2026 13:45:31lGo back Go up